Fort Smith, AR

6:26 PM CDT on September 01, 2015 (GMT -0500)
LCEM - Arkoma Elem. School | | Change Station
CLOSE
Current Station
Personal Weather Station
Location: Arkoma, OK
Elevation: 597 ft
Nearby Weather Stations

Elev 597 ft 35.35 °N, 94.44 °W | Updated 16 seconds ago

Clear
Clear
91.6 °F
Feels Like 94 °F
N
2.9
Wind Variable Wind from East
Gusts 4.0 mph

Today
High -- | Low -- °F
--% Chance of Precip.
Yesterday
High -- | Low -- °F
Precip. -- in
6:49 AM 7:44 PM
Waning Gibbous, 85% visible
Pressure 29.97 in
Visibility 10.0 miles
Clouds Few 9000 ft
Heat Index 94 °F
Dew Point 65 °F
Humidity 41%
Rainfall 0.00 in
Snow Depth Not available.
UV 12.2 out of 12
Pollen 10.30 out of 12
Air Quality Not available.
Flu Activity Not available.
METAR KFSM 012253Z 18006KT 10SM FEW090 33/14 A2999 RMK AO2 SLP149 T03280144
Pressure 29.97 in
Visibility 10.0 miles
Clouds Few 9000 ft
Heat Index 94 °F
Dew Point 65 °F
Humidity 41%
Rainfall 0.00 in
Snow Depth Not available.
UV 12.2 out of 12
Pollen 10.30 out of 12
Air Quality Not available.
Flu Activity Not available.
METAR KFSM 012253Z 18006KT 10SM FEW090 33/14 A2999 RMK AO2 SLP149 T03280144

10-Day Weather Forecast

×

Almanac

Astronomy

Sep. 01, 2015 Rise Set
Actual Time
Civil Twilight
Nautical Twilight
Astronomical Twilight
Moon
Length of Visible Light
Length of Day
Tomorrow will be .
, % of the Moon is Illuminated

Today's Extremes

State Highs State Lows

Community

WunderPhotos

Upload Photos

1,851,640 photos uploaded!

WunderBlogs® & News

Nearby

Air Quality

  Air Quality AQ Index Pollutant
Not available.

Snow Depth

Station Depth Elevation

Earthquake Activity

City Distance Mag. Time & Date
Minimum magnitude displayed is 2.5.

Coastal Water Temperatures

Place Temperature

Stations

Nearby Weather Stations

Station Location Temp. Windchill Dew Point Humidity Wind Precip. Elev Updated Type